Location: Cisewo
(53.3833°N, 14.9000°E)
Time: 12:13:45
(UTC+00:00)

Cosmos 1606 - Pass Details

Date: 18 April 2021
Orbit: 503 x 526 km, 82.5° (Epoch: 16 May)

Event Time Altitude Azimuth Distance (km) Brightness Sun altitude
Exits shadow 21:33:55 38° 56° (NE) 793 3.6 -22.9°
Drops below altitude 10° 21:36:40 10° 22° (NNE) 1,728 5.9 -23.1°
Sets 21:38:51 0° 16° (NNE) 2,618 7.1 -23.2°
